Year,Month,Day,Hour,Minute,Value (Times are PST for temperature in C)
2010,05,19,00,00,12.50
2010,05,19,00,01,12.50
2010,05,19,00,02,12.50
2010,05,19,00,03,12.40
2010,05,19,00,04,12.40
2010,05,19,00,05,12.40
2010,05,19,00,06,12.40
2010,05,19,00,07,12.40
2010,05,19,00,08,12.30
2010,05,19,00,09,12.30
2010,05,19,00,10,12.30
2010,05,19,00,11,12.30
2010,05,19,00,12,12.30
2010,05,19,00,13,12.30
2010,05,19,00,14,12.30
2010,05,19,00,15,12.20
2010,05,19,00,16,12.20
2010,05,19,00,17,12.10
2010,05,19,00,18,12.10
2010,05,19,00,19,12.10
2010,05,19,00,20,12.00
2010,05,19,00,21,12.00
2010,05,19,00,22,11.90
2010,05,19,00,23,11.90
2010,05,19,00,24,11.80
2010,05,19,00,25,11.80
2010,05,19,00,26,11.80
2010,05,19,00,27,11.80
2010,05,19,00,28,11.80
2010,05,19,00,29,11.70
2010,05,19,00,30,11.70
2010,05,19,00,31,11.70
2010,05,19,00,32,11.70
2010,05,19,00,33,11.70
2010,05,19,00,34,11.70
2010,05,19,00,35,11.60
2010,05,19,00,36,11.60
2010,05,19,00,37,11.60
2010,05,19,00,38,11.60
2010,05,19,00,39,11.60
2010,05,19,00,40,11.60
2010,05,19,00,41,11.60
2010,05,19,00,42,11.60
2010,05,19,00,43,11.60
2010,05,19,00,44,11.60
2010,05,19,00,45,11.60
2010,05,19,00,46,11.60
2010,05,19,00,47,11.60
2010,05,19,00,48,11.60
2010,05,19,00,49,11.60
2010,05,19,00,50,11.60
2010,05,19,00,51,11.60
2010,05,19,00,52,11.60
2010,05,19,00,53,11.60
2010,05,19,00,54,11.60
2010,05,19,00,55,11.60
2010,05,19,00,56,11.60
2010,05,19,00,57,11.60
2010,05,19,00,58,11.60
2010,05,19,00,59,11.60
2010,05,19,01,00,11.60
2010,05,19,01,01,11.50
2010,05,19,01,02,11.50
2010,05,19,01,03,11.50
2010,05,19,01,04,11.50
2010,05,19,01,05,11.50
2010,05,19,01,06,11.50
2010,05,19,01,07,11.40
2010,05,19,01,08,11.40
2010,05,19,01,09,11.40
2010,05,19,01,10,11.40
2010,05,19,01,11,11.40
2010,05,19,01,12,11.40
2010,05,19,01,13,11.40
2010,05,19,01,14,11.40
2010,05,19,01,15,11.40
2010,05,19,01,16,11.40
2010,05,19,01,17,11.40
2010,05,19,01,18,11.30
2010,05,19,01,19,11.30
2010,05,19,01,20,11.30
2010,05,19,01,21,11.30
2010,05,19,01,22,11.30
2010,05,19,01,23,11.20
2010,05,19,01,24,11.20
2010,05,19,01,25,11.20
2010,05,19,01,26,11.10
2010,05,19,01,27,11.10
2010,05,19,01,28,11.00
2010,05,19,01,29,11.00
2010,05,19,01,30,10.90
2010,05,19,01,31,10.90
2010,05,19,01,32,10.90
2010,05,19,01,33,10.80
2010,05,19,01,34,10.80
2010,05,19,01,35,10.80
2010,05,19,01,36,10.80
2010,05,19,01,37,10.80
2010,05,19,01,38,10.70
2010,05,19,01,39,10.70
2010,05,19,01,40,10.70
2010,05,19,01,41,10.70
2010,05,19,01,42,10.70
2010,05,19,01,43,10.60
2010,05,19,01,44,10.60
2010,05,19,01,45,10.60
2010,05,19,01,46,10.50
2010,05,19,01,47,10.50
2010,05,19,01,48,10.50
2010,05,19,01,49,10.40
2010,05,19,01,50,10.40
2010,05,19,01,51,10.40
2010,05,19,01,52,10.30
2010,05,19,01,53,10.30
2010,05,19,01,54,10.30
2010,05,19,01,55,10.30
2010,05,19,01,56,10.30
2010,05,19,01,57,10.20
2010,05,19,01,58,10.20
2010,05,19,01,59,10.20
2010,05,19,02,00,10.20
2010,05,19,02,01,10.10
2010,05,19,02,02,10.10
2010,05,19,02,03,10.10
2010,05,19,02,04,10.10
2010,05,19,02,05,10.10
2010,05,19,02,06,10.10
2010,05,19,02,07,10.10
2010,05,19,02,08,10.10
2010,05,19,02,09,10.10
2010,05,19,02,10,10.10
2010,05,19,02,11,10.10
2010,05,19,02,12,10.10
2010,05,19,02,13,10.10
2010,05,19,02,14,10.10
2010,05,19,02,15,10.10
2010,05,19,02,16,10.10
2010,05,19,02,17,10.10
2010,05,19,02,18,10.10
2010,05,19,02,19,10.10
2010,05,19,02,20,10.00
2010,05,19,02,21,10.10
2010,05,19,02,22,10.00
2010,05,19,02,23,10.10
2010,05,19,02,24,10.00
2010,05,19,02,25,10.00
2010,05,19,02,26,10.00
2010,05,19,02,27,10.00
2010,05,19,02,28,10.00
2010,05,19,02,29,10.00
2010,05,19,02,30,10.00
2010,05,19,02,31,10.00
2010,05,19,02,32,10.00
2010,05,19,02,33,10.00
2010,05,19,02,34,10.00
2010,05,19,02,35,10.00
2010,05,19,02,36,10.00
2010,05,19,02,37,10.00
2010,05,19,02,38,10.00
2010,05,19,02,39,10.00
2010,05,19,02,40,10.00
2010,05,19,02,41,10.00
2010,05,19,02,42,10.00
2010,05,19,02,43,9.90
2010,05,19,02,44,9.90
2010,05,19,02,45,9.90
2010,05,19,02,46,9.90
2010,05,19,02,47,9.90
2010,05,19,02,48,9.90
2010,05,19,02,49,9.90
2010,05,19,02,50,9.90
2010,05,19,02,51,9.90
2010,05,19,02,52,9.90
2010,05,19,02,53,9.90
2010,05,19,02,54,9.90
2010,05,19,02,55,9.90
2010,05,19,02,56,9.90
2010,05,19,02,57,9.90
2010,05,19,02,58,9.90
2010,05,19,02,59,9.90
2010,05,19,03,00,9.90
2010,05,19,03,01,9.80
2010,05,19,03,02,9.80
2010,05,19,03,03,9.80
2010,05,19,03,04,9.80
2010,05,19,03,05,9.80
2010,05,19,03,06,9.80
2010,05,19,03,07,9.80
2010,05,19,03,08,9.80
2010,05,19,03,09,9.80
2010,05,19,03,10,9.80
2010,05,19,03,11,9.80
2010,05,19,03,12,9.80
2010,05,19,03,13,9.80
2010,05,19,03,14,9.80
2010,05,19,03,15,9.80
2010,05,19,03,16,9.80
2010,05,19,03,17,9.80
2010,05,19,03,18,9.80
2010,05,19,03,19,9.80
2010,05,19,03,20,9.80
2010,05,19,03,21,9.80
2010,05,19,03,22,9.80
2010,05,19,03,23,9.80
2010,05,19,03,24,9.80
2010,05,19,03,25,9.80
2010,05,19,03,26,9.80
2010,05,19,03,27,9.80
2010,05,19,03,28,9.80
2010,05,19,03,29,9.80
2010,05,19,03,30,9.80
2010,05,19,03,31,9.80
2010,05,19,03,32,9.80
2010,05,19,03,33,9.80
2010,05,19,03,34,9.80
2010,05,19,03,35,9.80
2010,05,19,03,36,9.80
2010,05,19,03,37,9.80
2010,05,19,03,38,9.80
2010,05,19,03,39,9.80
2010,05,19,03,40,9.80
2010,05,19,03,41,9.80
2010,05,19,03,42,9.80
2010,05,19,03,43,9.80
2010,05,19,03,44,9.80
2010,05,19,03,45,9.80
2010,05,19,03,46,9.80
2010,05,19,03,47,9.80
2010,05,19,03,48,9.80
2010,05,19,03,49,9.80
2010,05,19,03,50,9.80
2010,05,19,03,51,9.80
2010,05,19,03,52,9.80
2010,05,19,03,53,9.80
2010,05,19,03,54,9.80
2010,05,19,03,55,9.80
2010,05,19,03,56,9.80
2010,05,19,03,57,9.80
2010,05,19,03,58,9.80
2010,05,19,03,59,9.80
2010,05,19,04,00,9.80
2010,05,19,04,01,9.80
2010,05,19,04,02,9.80
2010,05,19,04,03,9.80
2010,05,19,04,04,9.80
2010,05,19,04,13,9.80
2010,05,19,04,14,9.80
2010,05,19,04,15,9.80
2010,05,19,04,16,9.80
2010,05,19,04,17,9.80
2010,05,19,04,18,9.80
2010,05,19,04,19,9.80
2010,05,19,04,20,9.80
2010,05,19,04,21,9.80
2010,05,19,04,22,9.80
2010,05,19,04,23,9.80
2010,05,19,04,24,9.80
2010,05,19,04,25,9.80
2010,05,19,04,26,9.80
2010,05,19,04,27,9.80
2010,05,19,04,28,9.80
2010,05,19,04,29,9.80
2010,05,19,04,30,9.80
2010,05,19,04,31,9.80
2010,05,19,04,32,9.80
2010,05,19,04,33,9.80
2010,05,19,04,34,9.70
2010,05,19,04,35,9.70
2010,05,19,04,36,9.70
2010,05,19,04,37,9.70
2010,05,19,04,38,9.70
2010,05,19,04,39,9.70
2010,05,19,04,40,9.70
2010,05,19,04,41,9.70
2010,05,19,04,42,9.70
2010,05,19,04,43,9.70
2010,05,19,04,44,9.70
2010,05,19,04,45,9.70
2010,05,19,04,46,9.80
2010,05,19,04,47,9.80
2010,05,19,04,48,9.80
2010,05,19,04,49,9.80
2010,05,19,04,50,9.80
2010,05,19,04,51,9.80
2010,05,19,04,52,9.80
2010,05,19,04,53,9.80
2010,05,19,04,54,9.80
2010,05,19,04,55,9.80
2010,05,19,04,56,9.80
2010,05,19,04,57,9.80
2010,05,19,04,58,9.80
2010,05,19,04,59,9.80
2010,05,19,05,00,9.80
2010,05,19,05,01,9.80
2010,05,19,05,02,9.80
2010,05,19,05,03,9.80
2010,05,19,05,04,9.80
2010,05,19,05,05,9.80
2010,05,19,05,06,9.80
2010,05,19,05,07,9.80
2010,05,19,05,08,9.80
2010,05,19,05,09,9.80
2010,05,19,05,10,9.80
2010,05,19,05,11,9.80
2010,05,19,05,12,9.80
2010,05,19,05,13,9.80
2010,05,19,05,14,9.80
2010,05,19,05,15,9.80
2010,05,19,05,16,9.80
2010,05,19,05,17,9.80
2010,05,19,05,18,9.80
2010,05,19,05,19,9.80
2010,05,19,05,20,9.80
2010,05,19,05,21,9.80
2010,05,19,05,22,9.80
2010,05,19,05,23,9.80
2010,05,19,05,24,9.80
2010,05,19,05,25,9.80
2010,05,19,05,26,9.80
2010,05,19,05,27,9.80
2010,05,19,05,28,9.80
2010,05,19,05,29,9.80
2010,05,19,05,30,9.80
2010,05,19,05,31,9.80
2010,05,19,05,32,9.80
2010,05,19,05,33,9.80
2010,05,19,05,34,9.80
2010,05,19,05,35,9.80
2010,05,19,05,36,9.80
2010,05,19,05,37,9.80
2010,05,19,05,38,9.80
2010,05,19,05,39,9.80
2010,05,19,05,40,9.80
2010,05,19,05,41,9.80
2010,05,19,05,42,9.80
2010,05,19,05,43,9.80
2010,05,19,05,44,9.80
2010,05,19,05,45,9.80
2010,05,19,05,46,9.80
2010,05,19,05,47,9.80
2010,05,19,05,48,9.80
2010,05,19,05,49,9.80
2010,05,19,05,50,9.80
2010,05,19,05,51,9.80
2010,05,19,05,52,9.90
2010,05,19,05,53,9.90
2010,05,19,05,54,9.90
2010,05,19,05,55,9.90
2010,05,19,05,56,9.90
2010,05,19,05,57,9.90
2010,05,19,05,58,10.00
2010,05,19,05,59,10.00
2010,05,19,06,00,10.00
2010,05,19,06,01,10.00
2010,05,19,06,02,10.00
2010,05,19,06,03,10.10
2010,05,19,06,04,10.10
2010,05,19,06,05,10.10
2010,05,19,06,06,10.10
2010,05,19,06,07,10.10
2010,05,19,06,08,10.10
2010,05,19,06,09,10.10
2010,05,19,06,10,10.10
2010,05,19,06,11,10.20
2010,05,19,06,12,10.20
2010,05,19,06,13,10.20
2010,05,19,06,14,10.20
2010,05,19,06,15,10.20
2010,05,19,06,16,10.20
2010,05,19,06,17,10.20
2010,05,19,06,18,10.20
2010,05,19,06,19,10.30
2010,05,19,06,20,10.30
2010,05,19,06,21,10.30
2010,05,19,06,22,10.30
2010,05,19,06,23,10.30
2010,05,19,06,24,10.30
2010,05,19,06,25,10.30
2010,05,19,06,26,10.30
2010,05,19,06,27,10.30
2010,05,19,06,28,10.30
2010,05,19,06,29,10.30
2010,05,19,06,30,10.30
2010,05,19,06,31,10.30
2010,05,19,06,32,10.30
2010,05,19,06,33,10.30
2010,05,19,06,34,10.30
2010,05,19,06,35,10.30
2010,05,19,06,36,10.30
2010,05,19,06,37,10.30
2010,05,19,06,38,10.30
2010,05,19,06,39,10.30
2010,05,19,06,40,10.30
2010,05,19,06,41,10.30
2010,05,19,06,42,10.30
2010,05,19,06,43,10.30
2010,05,19,06,44,10.30
2010,05,19,06,45,10.30
2010,05,19,06,46,10.30
2010,05,19,06,47,10.30
2010,05,19,06,48,10.30
2010,05,19,06,49,10.30
2010,05,19,06,50,10.30
2010,05,19,06,51,10.30
2010,05,19,06,52,10.40
2010,05,19,06,53,10.40
2010,05,19,06,54,10.40
2010,05,19,06,55,10.40
2010,05,19,06,56,10.40
2010,05,19,06,57,10.40
2010,05,19,06,58,10.40
2010,05,19,06,59,10.40
2010,05,19,07,00,10.40
2010,05,19,07,01,10.40
2010,05,19,07,02,10.40
2010,05,19,07,03,10.50
2010,05,19,07,04,10.50
2010,05,19,07,05,10.50
2010,05,19,07,06,10.50
2010,05,19,07,07,10.50
2010,05,19,07,08,10.50
2010,05,19,07,09,10.60
2010,05,19,07,10,10.60
2010,05,19,07,11,10.60
2010,05,19,07,12,10.60
2010,05,19,07,13,10.60
2010,05,19,07,14,10.60
2010,05,19,07,15,10.60
2010,05,19,07,16,10.60
2010,05,19,07,17,10.60
2010,05,19,07,18,10.60
2010,05,19,07,19,10.60
2010,05,19,07,20,10.60
2010,05,19,07,21,10.70
2010,05,19,07,22,10.70
2010,05,19,07,23,10.70
2010,05,19,07,24,10.70
2010,05,19,07,25,10.70
2010,05,19,07,26,10.70
2010,05,19,07,27,10.70
2010,05,19,07,28,10.80
2010,05,19,07,29,10.80
2010,05,19,07,30,10.80
2010,05,19,07,31,10.80
2010,05,19,07,32,10.80
2010,05,19,07,33,10.80
2010,05,19,07,34,10.80
2010,05,19,07,35,10.90
2010,05,19,07,36,10.90
2010,05,19,07,37,10.90
2010,05,19,07,38,10.90
2010,05,19,07,39,10.90
2010,05,19,07,40,10.90
2010,05,19,07,41,10.90
2010,05,19,07,42,10.90
2010,05,19,07,43,11.00
2010,05,19,07,44,11.00
2010,05,19,07,45,11.00
2010,05,19,07,46,11.00
2010,05,19,07,47,11.00
2010,05,19,07,48,11.00
2010,05,19,07,49,11.00
2010,05,19,07,50,11.00
2010,05,19,07,51,11.00
2010,05,19,07,52,11.00
2010,05,19,07,53,11.00
2010,05,19,07,54,11.00
2010,05,19,07,55,11.00
2010,05,19,07,56,11.00
2010,05,19,07,57,11.10
2010,05,19,07,58,11.10
2010,05,19,07,59,11.10
2010,05,19,08,00,11.10
2010,05,19,08,01,11.20
2010,05,19,08,02,11.20
2010,05,19,08,03,11.20
2010,05,19,08,04,11.20
2010,05,19,08,05,11.20
2010,05,19,08,06,11.20
2010,05,19,08,07,11.20
2010,05,19,08,08,11.20
2010,05,19,08,09,11.20
2010,05,19,08,10,11.20
2010,05,19,08,11,11.20
2010,05,19,08,12,11.20
2010,05,19,08,13,11.30
2010,05,19,08,14,11.30
2010,05,19,08,15,11.30
2010,05,19,08,16,11.40
2010,05,19,08,17,11.40
2010,05,19,08,18,11.40
2010,05,19,08,19,11.50
2010,05,19,08,20,11.50
2010,05,19,08,21,11.50
2010,05,19,08,22,11.50
2010,05,19,08,23,11.50
2010,05,19,08,24,11.50
2010,05,19,08,25,11.50
2010,05,19,08,26,11.60
2010,05,19,08,27,11.60
2010,05,19,08,28,11.70
2010,05,19,08,29,11.70
2010,05,19,08,30,11.80
2010,05,19,08,31,11.80
2010,05,19,08,32,11.90
2010,05,19,08,33,12.00
2010,05,19,08,34,12.10
2010,05,19,08,35,12.10
2010,05,19,08,36,12.10
2010,05,19,08,37,12.20
2010,05,19,08,38,12.20
2010,05,19,08,39,12.30
2010,05,19,08,40,12.30
2010,05,19,08,41,12.30
2010,05,19,08,42,12.40
2010,05,19,08,43,12.40
2010,05,19,08,44,12.50
2010,05,19,08,45,12.50
2010,05,19,08,46,12.60
2010,05,19,08,47,12.60
2010,05,19,08,48,12.60
2010,05,19,08,49,12.50
2010,05,19,08,50,12.40
2010,05,19,08,51,12.40
2010,05,19,08,52,12.40
2010,05,19,08,53,12.40
2010,05,19,08,54,12.40
2010,05,19,08,55,12.50
2010,05,19,08,56,12.50
2010,05,19,08,57,12.50
2010,05,19,08,58,12.50
2010,05,19,08,59,12.60
2010,05,19,09,00,12.60
2010,05,19,09,01,12.60
2010,05,19,09,02,12.60
2010,05,19,09,03,12.70
2010,05,19,09,04,12.80
2010,05,19,09,05,12.80
2010,05,19,09,06,12.80
2010,05,19,09,07,12.90
2010,05,19,09,08,12.90
2010,05,19,09,09,13.00
2010,05,19,09,10,13.10
2010,05,19,09,11,13.10
2010,05,19,09,12,13.20
2010,05,19,09,13,13.30
2010,05,19,09,14,13.30
2010,05,19,09,15,13.30
2010,05,19,09,16,13.30
2010,05,19,09,17,13.40
2010,05,19,09,18,13.40
2010,05,19,09,19,13.40
2010,05,19,09,20,13.50
2010,05,19,09,21,13.50
2010,05,19,09,22,13.50
2010,05,19,09,23,13.50
2010,05,19,09,24,13.50
2010,05,19,09,25,13.50
2010,05,19,09,26,13.50
2010,05,19,09,27,13.60
2010,05,19,09,28,13.60
2010,05,19,09,29,13.60
2010,05,19,09,30,13.60
2010,05,19,09,31,13.60
2010,05,19,09,32,13.60
2010,05,19,09,33,13.60
2010,05,19,09,34,13.70
2010,05,19,09,35,13.70
2010,05,19,09,36,13.60
2010,05,19,09,37,13.60
2010,05,19,09,38,13.60
2010,05,19,09,39,13.60
2010,05,19,09,40,13.50
2010,05,19,09,41,13.50
2010,05,19,09,42,13.40
2010,05,19,09,43,13.40
2010,05,19,09,44,13.40
2010,05,19,09,45,13.40
2010,05,19,09,46,13.50
2010,05,19,09,47,13.50
2010,05,19,09,48,13.50
2010,05,19,09,49,13.50
2010,05,19,09,50,13.50
2010,05,19,09,51,13.50
2010,05,19,09,52,13.50
2010,05,19,09,53,13.60
2010,05,19,09,54,13.60
2010,05,19,09,55,13.70
2010,05,19,09,56,13.80
2010,05,19,09,57,13.80
2010,05,19,09,58,13.90
2010,05,19,09,59,13.90
2010,05,19,10,00,14.00
2010,05,19,10,01,14.10
2010,05,19,10,02,14.20
2010,05,19,10,03,14.30
2010,05,19,10,04,14.30
2010,05,19,10,05,14.40
2010,05,19,10,06,14.50
2010,05,19,10,07,14.60
2010,05,19,10,08,14.70
2010,05,19,10,09,14.70
2010,05,19,10,10,14.70
2010,05,19,10,11,14.80
2010,05,19,10,12,14.80
2010,05,19,10,13,14.80
2010,05,19,10,14,14.80
2010,05,19,10,15,14.80
2010,05,19,10,16,14.70
2010,05,19,10,17,14.70
2010,05,19,10,18,14.70
2010,05,19,10,19,14.70
2010,05,19,10,20,14.70
2010,05,19,10,21,14.80
2010,05,19,10,22,14.90
2010,05,19,10,23,15.00
2010,05,19,10,24,15.00
2010,05,19,10,25,15.00
2010,05,19,10,26,15.00
2010,05,19,10,27,15.00
2010,05,19,10,28,15.00
2010,05,19,10,29,15.00
2010,05,19,10,30,15.00
2010,05,19,10,31,14.90
2010,05,19,10,32,15.00
2010,05,19,10,33,15.00
2010,05,19,10,34,15.00
2010,05,19,10,35,15.00
2010,05,19,10,36,15.00
2010,05,19,10,37,15.00
2010,05,19,10,38,15.20
2010,05,19,10,39,15.20
2010,05,19,10,40,15.10
2010,05,19,10,41,15.00
2010,05,19,10,42,15.00
2010,05,19,10,43,15.10
2010,05,19,10,44,15.10
2010,05,19,10,45,15.10
2010,05,19,10,46,15.20
2010,05,19,10,47,15.30
2010,05,19,10,48,15.30
2010,05,19,10,49,15.40
2010,05,19,10,50,15.40
2010,05,19,10,51,15.50
2010,05,19,10,52,15.60
2010,05,19,10,53,15.60
2010,05,19,10,54,15.70
2010,05,19,10,55,15.80
2010,05,19,10,56,15.90
2010,05,19,10,57,15.90
2010,05,19,10,58,16.10
2010,05,19,10,59,16.10
2010,05,19,11,00,16.20
2010,05,19,11,01,16.30
2010,05,19,11,02,16.20
2010,05,19,11,03,16.20
2010,05,19,11,04,16.20
2010,05,19,11,05,16.20
2010,05,19,11,06,16.10
2010,05,19,11,07,15.90
2010,05,19,11,08,15.70
2010,05,19,11,09,15.70
2010,05,19,11,10,15.60
2010,05,19,11,11,15.50
2010,05,19,11,12,15.40
2010,05,19,11,13,15.40
2010,05,19,11,14,15.30
2010,05,19,11,15,15.20
2010,05,19,11,16,15.20
2010,05,19,11,17,15.20
2010,05,19,11,18,15.20
2010,05,19,11,19,15.20
2010,05,19,11,20,15.30
2010,05,19,11,21,15.30
2010,05,19,11,22,15.40
2010,05,19,11,23,15.40
2010,05,19,11,24,15.40
2010,05,19,11,25,15.50
2010,05,19,11,26,15.50
2010,05,19,11,27,15.60
2010,05,19,11,28,15.70
2010,05,19,11,29,15.70
2010,05,19,11,30,15.70
2010,05,19,11,31,15.70
2010,05,19,11,32,15.70
2010,05,19,11,33,15.70
2010,05,19,11,34,15.60
2010,05,19,11,35,15.50
2010,05,19,11,36,15.50
2010,05,19,11,37,15.40
2010,05,19,11,38,15.40
2010,05,19,11,39,15.40
2010,05,19,11,40,15.40
2010,05,19,11,41,15.30
2010,05,19,11,42,15.30
2010,05,19,11,43,15.30
2010,05,19,11,44,15.30
2010,05,19,11,45,15.20
2010,05,19,11,46,15.20
2010,05,19,11,47,15.20
2010,05,19,11,48,15.20
2010,05,19,11,49,15.20
2010,05,19,11,50,15.20
2010,05,19,11,51,15.20
2010,05,19,11,52,15.20
2010,05,19,11,53,15.20
2010,05,19,11,54,15.30
2010,05,19,11,55,15.30
2010,05,19,11,56,15.40
2010,05,19,11,57,15.40
2010,05,19,11,58,15.40
2010,05,19,11,59,15.40
2010,05,19,12,00,15.40
2010,05,19,12,01,15.40
2010,05,19,12,02,15.40
2010,05,19,12,03,15.40
2010,05,19,12,04,15.50
2010,05,19,12,05,15.50
2010,05,19,12,06,15.60
2010,05,19,12,07,15.60
2010,05,19,12,08,15.60
2010,05,19,12,09,15.70
2010,05,19,12,10,15.70
2010,05,19,12,11,15.70
2010,05,19,12,12,15.60
2010,05,19,12,13,15.60
2010,05,19,12,14,15.60
2010,05,19,12,15,15.60
2010,05,19,12,16,15.60
2010,05,19,12,17,15.60
2010,05,19,12,18,15.60
2010,05,19,12,19,15.60
2010,05,19,12,20,15.60
2010,05,19,12,21,15.60
2010,05,19,12,22,15.60
2010,05,19,12,23,15.60
2010,05,19,12,24,15.60
2010,05,19,12,25,15.60
2010,05,19,12,26,15.50
2010,05,19,12,27,15.50
2010,05,19,12,28,15.60
2010,05,19,12,29,15.60
2010,05,19,12,30,15.60
2010,05,19,12,31,15.70
2010,05,19,12,32,15.70
2010,05,19,12,33,15.70
2010,05,19,12,34,15.70
2010,05,19,12,35,15.70
2010,05,19,12,36,15.80
2010,05,19,12,37,15.90
2010,05,19,12,38,15.90
2010,05,19,12,39,16.00
2010,05,19,12,40,16.10
2010,05,19,12,41,16.10
2010,05,19,12,42,16.10
2010,05,19,12,43,16.10
2010,05,19,12,44,16.10
2010,05,19,12,45,16.00
2010,05,19,12,46,16.00
2010,05,19,12,47,15.90
2010,05,19,12,48,15.90
2010,05,19,12,49,15.90
2010,05,19,12,50,15.80
2010,05,19,12,51,15.80
2010,05,19,12,52,15.80
2010,05,19,12,53,15.80
2010,05,19,12,54,15.80
2010,05,19,12,55,15.80
2010,05,19,12,56,15.90
2010,05,19,12,57,15.90
2010,05,19,12,58,16.00
2010,05,19,12,59,16.10
2010,05,19,13,00,16.10
2010,05,19,13,01,16.10
2010,05,19,13,02,16.10
2010,05,19,13,03,16.20
2010,05,19,13,04,16.20
2010,05,19,13,05,16.20
2010,05,19,13,06,16.20
2010,05,19,13,07,16.20
2010,05,19,13,08,16.10
2010,05,19,13,09,16.10
2010,05,19,13,10,16.10
2010,05,19,13,11,16.10
2010,05,19,13,12,16.10
2010,05,19,13,13,16.10
2010,05,19,13,14,16.10
2010,05,19,13,15,16.10
2010,05,19,13,16,16.10
2010,05,19,13,17,16.10
2010,05,19,13,18,16.10
2010,05,19,13,19,16.10
2010,05,19,13,20,16.00
2010,05,19,13,21,15.90
2010,05,19,13,22,15.90
2010,05,19,13,23,15.90
2010,05,19,13,24,15.90
2010,05,19,13,25,15.90
2010,05,19,13,26,15.90
2010,05,19,13,27,15.80
2010,05,19,13,28,15.80
2010,05,19,13,29,15.80
2010,05,19,13,30,15.80
2010,05,19,13,31,15.70
2010,05,19,13,32,15.70
2010,05,19,13,33,15.70
2010,05,19,13,34,15.70
2010,05,19,13,35,15.70
2010,05,19,13,36,15.70
2010,05,19,13,37,15.70
2010,05,19,13,38,15.70
2010,05,19,13,39,15.70
2010,05,19,13,40,15.70
2010,05,19,13,41,15.70
2010,05,19,13,42,15.70
2010,05,19,13,43,15.70
2010,05,19,13,44,15.60
2010,05,19,13,45,15.60
2010,05,19,13,46,15.60
2010,05,19,13,47,15.60
2010,05,19,13,48,15.60
2010,05,19,13,49,15.60
2010,05,19,13,50,15.70
2010,05,19,13,51,15.70
2010,05,19,13,52,15.70
2010,05,19,13,53,15.80
2010,05,19,13,54,15.80
2010,05,19,13,55,15.90
2010,05,19,13,56,16.00
2010,05,19,13,57,16.00
2010,05,19,13,58,16.00
2010,05,19,13,59,16.10
2010,05,19,14,00,16.10
2010,05,19,14,01,16.10
2010,05,19,14,02,16.10
2010,05,19,14,03,16.10
2010,05,19,14,04,16.10
2010,05,19,14,05,16.10
2010,05,19,14,06,16.10
2010,05,19,14,07,16.10
2010,05,19,14,08,16.10
2010,05,19,14,09,16.00
2010,05,19,14,10,16.00
2010,05,19,14,11,16.00
2010,05,19,14,12,16.00
2010,05,19,14,13,16.00
2010,05,19,14,14,16.00
2010,05,19,14,15,16.00
2010,05,19,14,16,16.00
2010,05,19,14,17,16.00
2010,05,19,14,18,16.00
2010,05,19,14,19,16.00
2010,05,19,14,20,16.00
2010,05,19,14,21,16.00
2010,05,19,14,22,16.00
2010,05,19,14,23,16.10
2010,05,19,14,24,16.10
2010,05,19,14,25,16.10
2010,05,19,14,26,16.10
2010,05,19,14,27,16.10
2010,05,19,14,28,16.20
2010,05,19,14,29,16.20
2010,05,19,14,30,16.20
2010,05,19,14,31,16.20
2010,05,19,14,32,16.10
2010,05,19,14,33,16.10
2010,05,19,14,34,16.10
2010,05,19,14,35,16.00
2010,05,19,14,36,16.00
2010,05,19,14,37,15.90
2010,05,19,14,38,15.90
2010,05,19,14,39,15.80
2010,05,19,14,40,15.80
2010,05,19,14,41,15.80
2010,05,19,14,42,15.70
2010,05,19,14,43,15.60
2010,05,19,14,44,15.60
2010,05,19,14,45,15.50
2010,05,19,14,46,15.40
2010,05,19,14,47,15.40
2010,05,19,14,48,15.40
2010,05,19,14,49,15.40
2010,05,19,14,50,15.40
2010,05,19,14,51,15.50
2010,05,19,14,52,15.50
2010,05,19,14,53,15.50
2010,05,19,14,54,15.50
2010,05,19,14,55,15.60
2010,05,19,14,56,15.60
2010,05,19,14,57,15.60
2010,05,19,14,58,15.70
2010,05,19,14,59,15.70
2010,05,19,15,00,15.70
2010,05,19,15,01,15.80
2010,05,19,15,02,15.80
2010,05,19,15,03,15.90
2010,05,19,15,04,15.90
2010,05,19,15,05,15.90
2010,05,19,15,06,15.90
2010,05,19,15,07,15.90
2010,05,19,15,08,15.90
2010,05,19,15,09,15.80
2010,05,19,15,10,15.80
2010,05,19,15,11,15.70
2010,05,19,15,12,15.70
2010,05,19,15,13,15.60
2010,05,19,15,14,15.50
2010,05,19,15,15,15.40
2010,05,19,15,16,15.40
2010,05,19,15,17,15.30
2010,05,19,15,18,15.20
2010,05,19,15,19,15.10
2010,05,19,15,20,15.00
2010,05,19,15,21,15.00
2010,05,19,15,22,15.00
2010,05,19,15,23,15.00
2010,05,19,15,24,15.00
2010,05,19,15,25,15.00
2010,05,19,15,26,14.90
2010,05,19,15,27,14.80
2010,05,19,15,28,14.70
2010,05,19,15,29,14.70
2010,05,19,15,30,14.60
2010,05,19,15,31,14.50
2010,05,19,15,32,14.40
2010,05,19,15,33,14.30
2010,05,19,15,34,14.20
2010,05,19,15,35,14.10
2010,05,19,15,36,14.00
2010,05,19,15,37,13.90
2010,05,19,15,38,13.80
2010,05,19,15,39,13.70
2010,05,19,15,40,13.60
2010,05,19,15,41,13.60
2010,05,19,15,42,13.50
2010,05,19,15,43,13.40
2010,05,19,15,44,13.20
2010,05,19,15,45,13.10
2010,05,19,15,46,13.00
2010,05,19,15,47,12.90
2010,05,19,15,48,12.80
2010,05,19,15,49,12.80
2010,05,19,15,50,12.70
2010,05,19,15,51,12.70
2010,05,19,15,52,12.70
2010,05,19,15,53,12.80
2010,05,19,15,54,12.80
2010,05,19,15,55,12.90
2010,05,19,15,56,12.90
2010,05,19,15,57,13.00
2010,05,19,15,58,13.00
2010,05,19,15,59,13.10
2010,05,19,16,00,13.10
2010,05,19,16,01,13.10
2010,05,19,16,02,13.10
2010,05,19,16,03,13.10
2010,05,19,16,04,13.10
2010,05,19,16,05,13.10
2010,05,19,16,06,13.10
2010,05,19,16,07,13.20
2010,05,19,16,08,13.20
2010,05,19,16,09,13.20
2010,05,19,16,10,13.20
2010,05,19,16,11,13.10
2010,05,19,16,12,13.10
2010,05,19,16,13,13.10
2010,05,19,16,14,13.10
2010,05,19,16,15,13.10
2010,05,19,16,16,13.10
2010,05,19,16,17,13.10
2010,05,19,16,18,13.10
2010,05,19,16,19,13.10
2010,05,19,16,20,13.00
2010,05,19,16,21,13.00
2010,05,19,16,22,13.00
2010,05,19,16,23,13.00
2010,05,19,16,24,13.00
2010,05,19,16,25,13.00
2010,05,19,16,26,12.90
2010,05,19,16,27,12.90
2010,05,19,16,28,12.90
2010,05,19,16,29,12.90
2010,05,19,16,30,12.90
2010,05,19,16,31,12.90
2010,05,19,16,32,13.00
2010,05,19,16,33,13.00
2010,05,19,16,34,13.00
2010,05,19,16,35,13.00
2010,05,19,16,36,12.90
2010,05,19,16,37,12.90
2010,05,19,16,38,12.90
2010,05,19,16,39,12.90
2010,05,19,16,40,12.90
2010,05,19,16,41,12.90
2010,05,19,16,42,12.90
2010,05,19,16,43,12.90
2010,05,19,16,44,12.90
2010,05,19,16,45,12.90
2010,05,19,16,46,12.90
2010,05,19,16,47,12.90
2010,05,19,16,48,12.90
2010,05,19,16,49,12.90
2010,05,19,16,50,12.90
2010,05,19,16,51,12.90
2010,05,19,16,52,12.90
2010,05,19,16,53,12.90
2010,05,19,16,54,12.90
2010,05,19,16,55,12.90
2010,05,19,16,56,12.90
2010,05,19,16,57,12.90
2010,05,19,16,58,12.90
2010,05,19,16,59,12.90
2010,05,19,17,00,12.90
2010,05,19,17,01,12.90
2010,05,19,17,02,13.00
2010,05,19,17,03,13.00
2010,05,19,17,04,13.00
2010,05,19,17,05,13.10
2010,05,19,17,06,13.10
2010,05,19,17,07,13.10
2010,05,19,17,08,13.20
2010,05,19,17,09,13.20
2010,05,19,17,10,13.30
2010,05,19,17,11,13.30
2010,05,19,17,12,13.30
2010,05,19,17,13,13.40
2010,05,19,17,14,13.40
2010,05,19,17,15,13.40
2010,05,19,17,16,13.40
2010,05,19,17,17,13.40
2010,05,19,17,18,13.30
2010,05,19,17,19,13.30
2010,05,19,17,20,13.30
2010,05,19,17,21,13.20
2010,05,19,17,22,13.20
2010,05,19,17,23,13.20
2010,05,19,17,24,13.10
2010,05,19,17,25,13.10
2010,05,19,17,26,13.10
2010,05,19,17,27,13.00
2010,05,19,17,28,13.00
2010,05,19,17,29,12.90
2010,05,19,17,30,12.90
2010,05,19,17,31,12.90
2010,05,19,17,32,12.90
2010,05,19,17,33,12.90
2010,05,19,17,34,12.80
2010,05,19,17,35,12.80